Location: Allen Generating Plant
(35.0740°N, 90.1490°W)
Time: 01:21:42
(UTC+00:00)

Tiangong - Visible Passes

Search period start: 13 October 2024 00:00
Search period end: 23 October 2024 00:00
Orbit: 372 x 377 km, 41.5° (Epoch: 12 October)

Date Brightness Start Highest point End Pass type
(mag) Time Alt. Az. Time Alt. Az. Time Alt. Az.
15 Oct 0.0 11:19:15 10° SSW 11:21:48 23° SE 11:24:21 10° E visible
16 Oct 0.8 10:18:03 11° SSE 10:18:47 11° SE 10:19:55 10° ESE visible
17 Oct -1.1 10:50:24 24° SSW 10:51:46 39° SSE 10:54:41 10° ENE visible
18 Oct 1.3 09:50:31 12° E 09:50:31 12° E 09:50:52 10° E visible
18 Oct -2.1 11:22:31 15° WSW 11:24:54 62° NNW 11:27:59 10° ENE visible
19 Oct -0.8 10:22:25 39° E 10:22:25 39° E 10:24:32 10° ENE visible
20 Oct -1.7 10:54:09 40° NW 10:54:33 42° NNW 10:57:31 10° NE visible
21 Oct 1.3 09:53:45 12° ENE 09:53:45 12° ENE 09:54:00 10° ENE visible
21 Oct -0.7 11:25:43 14° WNW 11:27:45 25° N 11:30:25 10° NE visible
22 Oct -0.1 10:25:11 23° NNE 10:25:11 23° NNE 10:26:45 10° NE visible
